Starlink 5580

operational
NORAD ID: 55748 Int'l Des: 2023-028 Owner: SPXS Country: US Constellation: starlink
LEOCIRCULAR

About Starlink 5580

Description loading...

Live Position

Loading 3D Globe...

Upcoming Passes

Altitude History

Altitude vs Time

uPlot chart will show altitude changes over time

Two-Line Element Set

1 55748U 23028H 25306.14134423 .00002938 00000-0 25399-3 0 9995
2 55748 69.9988 206.0891 0002853 274.2560 85.8273 14.98315184146930
Epoch: Nov 2, 2025 • Age: 42 hours

Current Status

Altitude 575.5 km
Velocity 7.58 km/s
Sub-Earth Point 25.37°N, 149.35°W
Launch Date Mar 3, 2023
Age 2.6 years
Type internet

Technical Details

Classification Payload
Mass 305.00 kg
Dry Mass 290.00 kg
Total Mass 305.00 kg
Length 0.20 m
Diameter 2.80 m
Span 9.00 m
Shape Box + pan
Manufacturer SPXS
Bus Type Starlink
Phase Status In Orbit
Owner/State SPXS/US

Large Constellations

Loading constellations...